Voltar ao catálogo

STARLINK-4180

AtivoComunicaçõesVLEO
NORAD 53278·PAYLOAD·🇺🇸 United States

Lançado Jul 24, 2022 de Cape Canaveral Space Force Station

Loading…

Próximas Passagens (próximas 24 horas)

TLE

AtualizadoSource: CelesTrak SupGP

Época: Sep 14, 2026, 20:44 UTC

1 53278C 22086AN  26257.86437500  .00047842  00000+0  15388-2 0  2576
2 53278  53.1589  42.1098 0001235  75.5337  11.3830 15.31672508    18

Acompanhe STARLINK-4180 em tempo real com AllMySat

Download on the App Store